Вернуться в каталог

DELTA 1 DEB

АктивенSSO
NORAD 7146·DEBRIS·🇺🇸 United States

Запущен Nov 6, 1973 с Vandenberg Space Force Base

Loading…

Ближайшие Пролёты (ближайшие 24 часа)

TLE

СвежийSource: Space-Track

Эпоха: Sep 14, 2026, 11:04 UTC

1 07146U 73086DL  26257.46164955  .00001007  00000-0  73874-2 0  9993
2 07146 101.7460 132.5133 0061456 358.0138 176.3650 12.44374500385001

Отслеживайте DELTA 1 DEB в реальном времени с AllMySat

Download on the App Store